User: anonymous   Login
Location: Montague
(41.3030°N, 74.7940°W)
Time: 18:23:50
(UTC-04:00)
Language:

Cosmos 1461 - Orbit

View from above orbital plane
View from above orbital plane
View from above satellite
View from above satellite

Ground track
Ground track

The orbit data is extracted from the following two-line orbital elements,

1 14064U 83044A   17291.11282938  .00000971  00000-0  96890-4 0  9991
2 14064  65.0002 264.4549 0105260 346.3945  13.4336 14.93803809741717
Epoch (UTC): 18 October 2017 02:42:28
Eccentricity: 0.0105260
inclination: 65.0002°
perigee height: 513 km
apogee height: 659 km
right ascension of ascending node: 264.4549°
argument of perigee: 346.3945°
revolutions per day: 14.93803809
mean anomaly at epoch: 13.4336°
orbit number at epoch: 74171

The dashed part of the orbit path shows where the satellite is in the earth's shadow,  

DLR